Regional Weather Roundup
Issued by NWS

Home | Current Version | Previous Version | Graphics & Text | Print | Product List | Glossary On
Versions: 1 2 3 4 5 6 7 8 9 10 11 12 13 14 15 16 17 18 19 20 21 22 23 24 25 26 27 28 29 30 31 32 33 34 35 36 37 38 39 40 41 42 43 44 45 46 47 48 49 50
000
ASUS45 KPSR 202100
RWRAZ

PRELIMINARY ARIZONA REGIONAL HOURLY WEATHER ROUNDUP
NATIONAL WEATHER SERVICE PHOENIX AZ
200 PM MST MON OCT 20 2014

NOTE: FAIR INDICATES FEW OR NO CLOUDS BELOW 12,000 FEET WITH NO
SIGNIFICANT WEATHER AND/OR OBSTRUCTIONS TO VISIBILITY.

AZZ001>003-036-202200-
NORTHWEST ARIZONA

CITY           SKY/WX    TMP DP  RH WIND       PRES   REMARKS
KINGMAN        SUNNY     80  44  27 W10       29.97F
$$

AZZ004>008-015-016-018-202200-
NORTH CENTRAL ARIZONA

CITY           SKY/WX    TMP DP  RH WIND       PRES   REMARKS
GRAND CANYON   PTSUNNY   64  39  39 NE9G18    30.15S
PRESCOTT       SUNNY     72  39  30 VRB3      30.06F
FLAGSTAFF      PTSUNNY   62  38  40 VRB7      30.17S
PAYSON         MOSUNNY   72  43  35 VRB5      30.09F
$$

AZZ009>014-017-202200-
NORTHEAST ARIZONA

CITY           SKY/WX    TMP DP  RH WIND       PRES   REMARKS
WINSLOW        NOT AVBL
SAINT JOHNS    SUNNY     67  42  40 W7        30.09F
$$

AZZ023-202200-
GREATER PHOENIX AREA

CITY           SKY/WX    TMP DP  RH WIND       PRES   REMARKS
PHOENIX        MOSUNNY   87  48  25 VRB5      29.84F
GLENDALE       MOSUNNY   88  52  29 E9        29.86F
DEER VALLEY    SUNNY     84  46  26 E3        29.85F
SCOTTSDALE     SUNNY     85  47  26 S5        29.87F
MESA-FALCON    MOSUNNY   84  48  28 VRB5      29.85F
MESA-GATEWAY   MOSUNNY   86  50  28 N6        29.87F
CHANDLER       SUNNY     86  50  28 VRB6      29.85F
$$

AZZ027-028-202200-
SOUTHWEST MARICOPA COUNTY AND PINAL COUNTY

CITY           SKY/WX    TMP DP  RH WIND       PRES   REMARKS
CASA GRANDE    SUNNY     84  46  26 CALM      29.86F
GILA BEND      CLEAR     88  46  23 E5        29.84F
$$

AZZ503-504-507>509-202200-
SOUTHEAST ARIZONA

CITY           SKY/WX    TMP DP  RH WIND       PRES   REMARKS
TUCSON         SUNNY     82  47  29 VRB5      29.92F
NOGALES        LGT RAIN  71  43  36 SE14G25   29.98R
SIERRA VISTA   MOSUNNY   73  48  40 E6        30.02F
SAFFORD        MOSUNNY   77  51  40 SE12      29.96F
$$

AZZ020-021-025-026-031-202200-
SOUTHWEST ARIZONA

CITY           SKY/WX    TMP DP  RH WIND       PRES   REMARKS
YUMA           NOT AVBL
$$

CAZ031-033-041-043-047-048-061-202200-
SOUTHERN CALIFORNIA

CITY           SKY/WX    TMP DP  RH WIND       PRES   REMARKS
DOWNTOWN L.A.  SUNNY     78  60  53 CALM      29.87F
L.A. AIRPORT   MOSUNNY   72  62  71 W12       29.90F
SAN DIEGO      PTSUNNY   72  60  66 NW10      29.91F
BURBANK        SUNNY     76  56  49 S7        29.89F
ONTARIO        MOSUNNY   76  58  53 VRB3      29.89F
RIVERSIDE      SUNNY     78  59  51 VRB5      29.90F
PALM SPRINGS   SUNNY     88  52  29 VRB3      29.83F
EL CENTRO NAS  MOSUNNY   92  54  27 E5        29.77F
IMPERIAL       SUNNY     91  55  29 VRB3      29.77F
BLYTHE         SUNNY     89  51  27 VRB6      29.81F
$$

NVZ020-UTZ003-202200-
SOUTHERN NEVADA-UTAH

CITY           SKY/WX    TMP DP  RH WIND       PRES   REMARKS
LAS VEGAS      NOT AVBL
SALT LAKE CITY MOSUNNY   78  34  20 S13       29.95F
$$

NMZ009-TXZ055-202200-
NEW MEXICO-WEST TEXAS

CITY           SKY/WX    TMP DP  RH WIND       PRES   REMARKS
ALBUQUERQUE    PTSUNNY   70  42  36 SW7       30.12F
EL PASO        PTSUNNY   70  54  56 E9        30.01F
$$


........................KEY........................
SKY/WX - SKY CONDITION/WEATHER
TMP    - TEMPERATURE IN FAHRENHEIT
DP     - DEW POINT IN FAHRENHEIT
RH     - RELATIVE HUMIDITY IN PERCENT
WIND   - DIRECTION AND SPEED IN MILES PER HOUR (MPH)
VRB    - VARIABLE WIND DIRECTION
PRES   - MEAN SEA LEVEL PRESSURE IN INCHES OF MERCURY
         F - FALLING PRESSURE   R - RISING PRESSURE
         S - STEADY PRESSURE
VSB    - VISIBILITY IN MILES
HX     - HEAT INDEX IN FAHRENHEIT
WCI    - WIND CHILL INDEX IN FAHRENHEIT
TC     - TEMPERATURE IN CELSIUS WHICH IS ALSO KNOWN AS
         TEMPERATURE IN CENTIGRADE
AFB    - AIR FORCE BASE
         LUKE AFB IS LUKE AIR FORCE BASE
         DAVIS-MONTHAN IS DAVIS-MONTHAN AIR FORCE BASE
NAS    - NAVAL AIR STATION
         EL CENTRO NAS IS EL CENTRO NAVAL AIR STATION
N/A    - NOT AVAILABLE



USA.gov is the U.S. government's official web portal to all federal, state and local government web resources and services.